Location: Newark
(13.8117°N, 3.6025°W)
Time: 03:28:13
(UTC+00:00)

Vanguard 2 - Pass Details

Date: 30 August 2019
Orbit: 554 x 2937 km, 32.9° (Epoch: 14 October)

Event Time Altitude Azimuth Distance (km) Brightness Sun altitude
Rises 15:58:34 0° 307° (NW) 3,960 11.9 35.1°
Reaches altitude 10° 16:00:53 10° 310° (NW) 3,243 11.6 34.6°
Maximum altitude 16:09:22 67° 32° (NNE) 1,907 9.9 32.5°
Drops below altitude 10° 16:23:36 10° 113° (ESE) 5,224 11.3 29.0°
Sets 16:28:23 0° 115° (ESE) 6,487 11.7 27.9°
